Hazen, ND

11:10 PM CDT on April 22, 2018 (GMT -0500)
Mercer County Regional

Weather History for KHZE - April, 2014

Change the Weather History Date:

Friday, April 18, 2014

  Actual Average (KN60) Record (KN60)
Temperature  
Mean Temperature 47 °F -  
Max Temperature 62 °F 54 °F 74 °F (2015)
Min Temperature 32 °F 29 °F 15 °F (2013)
Degree Days  
Heating Degree Days 18    
Moisture  
Dew Point 29 °F    
Average Humidity 56    
Maximum Humidity 93    
Minimum Humidity 38    
Precipitation  
Precipitation 0.00 in - - ()
Sea Level Pressure  
Sea Level Pressure 29.87 in    
Wind  
Wind Speed 16 mph (ESE)    
Max Wind Speed 26 mph    
Max Gust Speed 37 mph    
Visibility 10 miles    
Events Rain    
Averages and records for this station are not official NWS values.
T = Trace of Precipitation, MM = Missing Value Source: NWS Daily Summary

Daily Weather History Graph

Daily Weather History Graph

Search for Another Location

Airport or City:

Astronomy

Apr. 18, 2014 Rise Set
Actual Time 6:52 AM CDT 8:39 PM CDT
Civil Twilight 6:19 AM CDT 9:12 PM CDT
Nautical Twilight 5:40 AM CDT 9:52 PM CDT
Astronomical Twilight 4:56 AM CDT 10:36 PM CDT
Moon No Moon Rise 9:07 AM CDT (4/18)
Length of Visible Light 14h 52m
Length of Day
13h 47m
Waning Gibbous, 87% of the Moon is Illuminated
Apr 18
Waning Gibbous
Apr 22
Last Quarter
Apr 29
New
May 6
First Quarter
May 14
Full

Hourly Weather History & Observations

Time (CDT) Temp. Windchill Dew Point Humidity Pressure Visibility Wind Dir Wind Speed Gust Speed Precip Events Conditions
12:35 AM 33.8 °F 26.4 °F 23.0 °F 65% 30.10 in 10.0 mi SE 9.2 mph - N/A   Overcast
12:55 AM 33.8 °F 26.4 °F 23.0 °F 65% 30.09 in 10.0 mi SE 9.2 mph - N/A   Overcast
1:15 AM 33.8 °F 26.4 °F 23.0 °F 65% 30.10 in 10.0 mi ESE 9.2 mph - N/A   Overcast
1:35 AM 35.6 °F 24.8 °F 23.0 °F 60% 30.09 in 10.0 mi SE 19.6 mph - N/A   Overcast
1:55 AM 35.6 °F 25.5 °F 23.0 °F 60% 30.08 in 10.0 mi SE 17.3 mph 25.3 mph N/A   Overcast
2:15 AM 35.6 °F 24.8 °F 23.0 °F 60% 30.07 in 10.0 mi SE 19.6 mph 27.6 mph N/A   Overcast
2:35 AM 35.6 °F 25.5 °F 23.0 °F 60% 30.07 in 10.0 mi SE 17.3 mph 27.6 mph N/A   Overcast
2:55 AM 35.6 °F 24.5 °F 21.2 °F 56% 30.07 in 10.0 mi SE 20.7 mph 28.8 mph N/A   Overcast
3:15 AM 35.6 °F 25.2 °F 21.2 °F 56% 30.05 in 10.0 mi SE 18.4 mph 27.6 mph N/A   Overcast
3:35 AM 33.8 °F 22.8 °F 21.2 °F 60% 30.05 in 10.0 mi SE 18.4 mph 26.5 mph N/A   Overcast
3:55 AM 32.0 °F 22.1 °F 21.2 °F 64% 30.04 in 10.0 mi ESE 13.8 mph 20.7 mph N/A   Overcast
4:15 AM 33.8 °F 27.0 °F 21.2 °F 60% 30.04 in 10.0 mi East 8.1 mph 19.6 mph N/A   Overcast
4:35 AM 32.0 °F 23.0 °F 21.2 °F 64% 30.04 in 10.0 mi ESE 11.5 mph 18.4 mph N/A   Overcast
4:55 AM 33.8 °F 23.5 °F 21.2 °F 60% 30.03 in 10.0 mi SE 16.1 mph 23.0 mph N/A   Overcast
5:15 AM 33.8 °F 23.5 °F 21.2 °F 60% 30.02 in 10.0 mi ESE 16.1 mph 25.3 mph N/A   Overcast
5:35 AM 33.8 °F 22.2 °F 21.2 °F 60% 30.01 in 10.0 mi ESE 20.7 mph 29.9 mph N/A   Overcast
5:55 AM 32.0 °F 19.8 °F 21.2 °F 64% 30.00 in 10.0 mi SE 20.7 mph 28.8 mph N/A   Overcast
6:15 AM 32.0 °F 20.5 °F 21.2 °F 64% 30.00 in 10.0 mi ESE 18.4 mph 26.5 mph N/A   Mostly Cloudy
6:35 AM 32.0 °F 20.1 °F 21.2 °F 64% 30.00 in 10.0 mi ESE 19.6 mph 27.6 mph N/A   Mostly Cloudy
6:55 AM 33.8 °F 23.2 °F 23.0 °F 65% 30.00 in 10.0 mi ESE 17.3 mph 25.3 mph N/A   Overcast
7:15 AM 33.8 °F 22.8 °F 23.0 °F 65% 29.99 in 10.0 mi ESE 18.4 mph 31.1 mph N/A   Overcast
7:35 AM 33.8 °F 23.9 °F 23.0 °F 65% 29.99 in 10.0 mi ESE 15.0 mph 29.9 mph N/A   Overcast
7:55 AM 35.6 °F 24.8 °F 23.0 °F 60% 29.98 in 10.0 mi ESE 19.6 mph 32.2 mph N/A   Overcast
8:15 AM 35.6 °F 24.8 °F 23.0 °F 60% 29.98 in 10.0 mi SE 19.6 mph 32.2 mph N/A   Overcast
8:35 AM 35.6 °F 25.2 °F 23.0 °F 60% 29.98 in 10.0 mi SE 18.4 mph 29.9 mph N/A   Overcast
8:55 AM 35.6 °F 24.8 °F 23.0 °F 60% 29.98 in 10.0 mi SE 19.6 mph 26.5 mph N/A   Scattered Clouds
9:15 AM 37.4 °F 26.1 °F 23.0 °F 56% 29.96 in 10.0 mi ESE 24.2 mph 35.7 mph N/A   Clear
9:35 AM 39.2 °F 29.3 °F 23.0 °F 52% 29.96 in 10.0 mi SE 20.7 mph 34.5 mph N/A   Clear
9:55 AM 39.2 °F 28.5 °F 23.0 °F 52% 29.95 in 10.0 mi SE 24.2 mph 28.8 mph N/A   Clear
10:15 AM 41.0 °F 30.7 °F 23.0 °F 49% 29.94 in 10.0 mi SE 25.3 mph 34.5 mph N/A   Clear
10:35 AM 42.8 °F 33.5 °F 23.0 °F 46% 29.94 in 10.0 mi SE 23.0 mph 31.1 mph N/A   Clear
10:55 AM 44.6 °F 36.6 °F 24.8 °F 46% 29.95 in 10.0 mi ESE 19.6 mph 27.6 mph N/A   Clear
11:15 AM 44.6 °F 36.6 °F 24.8 °F 46% 29.94 in 10.0 mi SE 19.6 mph 25.3 mph N/A   Clear
11:35 AM 46.4 °F 39.8 °F 24.8 °F 43% 29.93 in 10.0 mi ESE 16.1 mph 26.5 mph N/A   Clear
11:55 AM 48.2 °F - 26.6 °F 43% 29.92 in 10.0 mi SE 17.3 mph 26.5 mph N/A   Clear
12:15 PM 48.2 °F - 26.6 °F 43% 29.91 in 10.0 mi SE 18.4 mph 27.6 mph N/A   Clear
12:35 PM 50.0 °F - 26.6 °F 40% 29.89 in 10.0 mi ESE 19.6 mph 26.5 mph N/A   Clear
12:55 PM 50.0 °F - 28.4 °F 43% 29.88 in 10.0 mi ESE 20.7 mph 28.8 mph N/A   Clear
1:15 PM 53.6 °F - 28.4 °F 38% 29.87 in 10.0 mi SE 20.7 mph 28.8 mph N/A   Clear
1:35 PM 53.6 °F - 28.4 °F 38% 29.84 in 10.0 mi SE 21.9 mph 33.4 mph N/A   Clear
1:55 PM 55.4 °F - 30.2 °F 38% 29.83 in 10.0 mi SE 24.2 mph 33.4 mph N/A   Clear
2:15 PM 55.4 °F - 32.0 °F 41% 29.82 in 10.0 mi SE 20.7 mph 35.7 mph N/A   Clear
2:35 PM 55.4 °F - 32.0 °F 41% 29.80 in 10.0 mi SE 25.3 mph 34.5 mph N/A   Clear
2:55 PM 57.2 °F - 32.0 °F 38% 29.78 in 10.0 mi SE 23.0 mph 33.4 mph N/A   Clear
3:15 PM 57.2 °F - 32.0 °F 38% 29.76 in 10.0 mi SE 21.9 mph 36.8 mph N/A   Clear
3:35 PM 55.4 °F - 32.0 °F 41% 29.76 in 10.0 mi SE 19.6 mph 32.2 mph N/A   Clear
3:55 PM 57.2 °F - 32.0 °F 38% 29.74 in 10.0 mi SE 23.0 mph 35.7 mph N/A   Clear
4:15 PM 55.4 °F - 33.8 °F 44% 29.75 in 10.0 mi SE 25.3 mph 31.1 mph N/A   Clear
4:35 PM 57.2 °F - 33.8 °F 41% 29.73 in 10.0 mi SE 25.3 mph 34.5 mph N/A   Clear
4:55 PM 59.0 °F - 35.6 °F 42% 29.72 in 10.0 mi SE 26.5 mph 35.7 mph N/A   Clear
5:15 PM 59.0 °F - 35.6 °F 42% 29.70 in 10.0 mi SSE 23.0 mph 33.4 mph N/A   Clear
5:35 PM 59.0 °F - 35.6 °F 42% 29.70 in 10.0 mi SE 19.6 mph 28.8 mph N/A   Clear
5:55 PM 59.0 °F - 35.6 °F 42% 29.68 in 10.0 mi SE 20.7 mph 26.5 mph N/A   Clear
6:15 PM 60.8 °F - 37.4 °F 42% 29.67 in 10.0 mi SE 18.4 mph 27.6 mph N/A   Clear
6:35 PM 60.8 °F - 37.4 °F 42% 29.66 in 10.0 mi SE 19.6 mph 25.3 mph N/A   Clear
6:55 PM 62.6 °F - 39.2 °F 42% 29.66 in 10.0 mi East 13.8 mph 24.2 mph N/A   Clear
7:15 PM 55.4 °F - 37.4 °F 51% 29.66 in 10.0 mi East 12.7 mph 24.2 mph N/A   Clear
7:35 PM 55.4 °F - 35.6 °F 47% 29.66 in 10.0 mi East 16.1 mph 24.2 mph N/A   Clear
7:55 PM 53.6 °F - 37.4 °F 54% 29.66 in 10.0 mi East 12.7 mph 20.7 mph N/A   Clear
8:15 PM 51.8 °F - 35.6 °F 54% 29.66 in 10.0 mi East 12.7 mph 20.7 mph N/A   Partly Cloudy
8:35 PM 50.0 °F - 35.6 °F 58% 29.66 in 10.0 mi East 12.7 mph 19.6 mph N/A   Scattered Clouds
8:55 PM 50.0 °F - 37.4 °F 62% 29.66 in 10.0 mi East 9.2 mph - N/A   Overcast
9:15 PM 48.2 °F - 37.4 °F 66% 29.65 in 10.0 mi ENE 9.2 mph - N/A   Overcast
9:35 PM 48.2 °F - 37.4 °F 66% 29.65 in 10.0 mi ENE 8.1 mph - N/A   Overcast
9:55 PM 46.4 °F 42.9 °F 39.2 °F 76% 29.68 in 10.0 mi ENE 6.9 mph - N/A   Overcast
10:15 PM 46.4 °F 41.9 °F 39.2 °F 76% 29.67 in 7.0 mi ENE 9.2 mph - N/A Rain Light Rain
10:35 PM 44.6 °F 41.4 °F 39.2 °F 81% 29.68 in 7.0 mi NE 5.8 mph - N/A Rain Light Rain
10:55 PM 42.8 °F 40.1 °F 39.2 °F 87% 29.67 in 5.0 mi NE 4.6 mph - N/A Rain Light Rain
11:15 PM 41.0 °F 38.0 °F 39.2 °F 93% 29.67 in 5.0 mi North 4.6 mph - N/A   Overcast
11:35 PM 41.0 °F - 39.2 °F 93% 29.67 in 5.0 mi Calm Calm - N/A   Mostly Cloudy
11:55 PM 39.2 °F - 37.4 °F 93% 29.66 in 5.0 mi Calm Calm - N/A   Partly Cloudy